This is the latest recevied weather packets stored in our database for station/object IK2ILW-4. If no packets are shown the sender has not sent any weather packets the latest 10 day(s).
| Time | Temp. | Humidity | Pressure | Rain* | Wind** | Luminosity | Snow |
|---|---|---|---|---|---|---|---|
| 1778249570 | 11.67° C | 75% | 1016.3 hPa | 0.51 mm | - | 200 W/m² | - |
| 1778249266 | 11.67° C | 75% | 1016.3 hPa | 0.51 mm | - | 218 W/m² | - |
| 1778248965 | 11.67° C | 74% | 1016.3 hPa | 0.51 mm | - | 221 W/m² | - |
| 1778248660 | 12.22° C | 74% | 1016.4 hPa | 0.51 mm | - | 229 W/m² | - |
| 1778248356 | 12.22° C | 74% | 1016.4 hPa | 0.51 mm | - | 260 W/m² | - |
| 1778248070 | 12.22° C | 74% | 1016.4 hPa | 0.51 mm | - | 311 W/m² | - |
| 1778247769 | 11.67° C | 76% | 1016.5 hPa | 0.51 mm | - | 381 W/m² | - |
| 1778247469 | 11.67° C | 77% | 1016.5 hPa | 0.51 mm | - | 380 W/m² | - |
| 1778247165 | 11.67° C | 77% | 1016.5 hPa | 0.51 mm | - | 343 W/m² | - |
| 1778246860 | 11.11° C | 78% | 1016.4 hPa | 0.51 mm | - | 295 W/m² | - |
| 1778246556 | 11.11° C | 77% | 1016.4 hPa | 0.51 mm | - | 306 W/m² | - |
| 1778246272 | 11.11° C | 75% | 1016.4 hPa | 0.51 mm | - | 348 W/m² | - |
| 1778245966 | 11.67° C | 76% | 1016.5 hPa | 0.51 mm | - | 366 W/m² | - |
| 1778245662 | 11.11° C | 76% | 1016.5 hPa | 0.51 mm | - | 401 W/m² | - |
| 1778245357 | 11.11° C | 77% | 1016.5 hPa | 0.51 mm | - | 316 W/m² | - |
| 1778245056 | 11.67° C | 76% | 1016.4 hPa | 0.51 mm | - | 294 W/m² | - |
| 1778244756 | 11.11° C | 74% | 1016.4 hPa | 0.51 mm | - | 309 W/m² | - |
| 1778244471 | 11.11° C | 74% | 1016.4 hPa | 0.51 mm | - | 299 W/m² | - |
| 1778244167 | 11.67° C | 77% | 1016.4 hPa | 0.51 mm | - | 403 W/m² | - |
| 1778243862 | 11.11° C | 78% | 1016.4 hPa | 0.51 mm | - | 459 W/m² | - |
| 1778243558 | 11.11° C | 77% | 1016.4 hPa | 0.51 mm | - | 415 W/m² | - |
| 1778243273 | 11.11° C | 78% | 1016.6 hPa | 0.51 mm | - | 388 W/m² | - |
| 1778242969 | 11.11° C | 79% | 1016.6 hPa | 0.51 mm | - | 338 W/m² | - |
| 1778242669 | 10.56° C | 78% | 1016.6 hPa | 0.51 mm | - | 322 W/m² | - |
| 1778242365 | 11.11° C | 78% | 1016.7 hPa | 0.51 mm | - | 318 W/m² | - |
* Rain since midnight (hover to see other rain measurements)
** Current wind speed in m/s (hover to see current wind gust speed)